Volver al catálogo

STARLINK-34100

ActivoComunicacionesVLEO
NORAD 64385·PAYLOAD·🇺🇸 United States

Lanzado Jun 13, 2025 desde Cape Canaveral Space Force Station

Loading…

Próximos Pases (próximas 24 horas)

TLE

ActualizadoSource: CelesTrak SupGP

Época: Sep 14, 2026, 22:45 UTC

1 64385C 25127R   26257.94840278 -.00020128  00000+0 -72906-3 0  2575
2 64385  43.0000 191.2303 0001040 257.1271 276.5349 15.27588766    16

Sigue STARLINK-34100 en tiempo real con AllMySat

Download on the App Store